Wind_Speed
79 79 79 79 79 78 79 78 78 77 77 76 75 74 74 73 72 72 71 70 69 68 68 67 67 66 66 66 65 65 66 67 67 67 67 66 66 65 64 64 63 63 63 63 63 63 63 62 61 60 58 57 56 55 54 53 52 52 51 50 49 49 49 49 50 50 51 50 49 47 46 45 43 42 41 40 39 39 39 39 40 41 42 42 42 42
79 79 79 79 78 78 79 79 79 78 78 77 76 75 75 74 74 73 73 72 70 69 69 68 68 67 66 66 65 65 65 66 67 68 68 67 67 66 65 65 64 64 64 64 64 64 64 63 62 61 60 58 57 56 55 54 54 53 53 52 51 50 49 49 50 50 51 51 50 48 46 44 43 41 39 38 37 37 37 37 38 40 41 42 42 42
76 77 77 77 77 77 78 78 78 78 78 77 77 76 75 75 75 74 74 73 72 71 70 69 69 68 67 66 65 65 65 66 67 67 67 67 67 67 66 66 65 65 65 65 65 65 65 64 64 63 61 60 59 57 57 56 55 54 54 53 52 51 50 49 49 50 50 50 49 47 45 43 42 40 38 36 35 35 35 36 37 38 39 40 41 41
74 74 75 75 75 76 76 77 77 77 77 77 76 76 76 75 75 75 75 74 74 73 72 71 70 70 69 68 67 66 66 67 67 67 67 67 67 67 67 67 66 66 65 65 65 66 65 65 65 64 62 61 60 59 57 57 56 55 55 54 54 53 51 50 49 49 49 49 48 46 44 42 41 39 37 35 34 34 34 35 36 37 38 39 40 41
70 71 72 72 73 73 74 75 75 75 76 75 75 75 75 75 76 75 75 75 74 74 73 73 72 72 71 70 68 67 67 68 68 68 68 68 67 67 67 67 67 67 66 66 66 66 66 66 65 64 63 62 61 59 58 57 57 56 56 55 54 53 52 51 50 49 49 48 48 46 44 42 40 38 36 35 34 34 34 35 36 36 37 38 39 40
66 67 68 69 69 70 71 72 73 73 73 73 73 74 74 75 75 75 75 75 75 75 75 74 74 74 73 72 71 70 69 69 69 69 69 68 68 68 67 67 67 67 67 67 67 66 66 66 65 64 63 62 61 60 59 58 57 57 57 56 55 54 53 52 50 49 48 48 48 46 45 42 41 39 37 36 36 35 35 35 36 36 37 38 39 39
60 61 63 64 65 66 67 68 70 70 70 71 71 72 72 73 73 73 74 74 75 75 75 75 75 75 75 75 74 73 72 71 71 70 70 70 70 69 69 68 68 68 68 67 67 66 66 65 65 64 63 62 61 60 60 59 59 58 58 57 56 55 55 53 51 50 49 48 48 47 45 43 42 40 39 38 38 37 37 37 37 37 37 37 38 39
52 54 55 56 58 60 61 63 64 65 66 67 68 69 70 70 71 71 72 73 73 74 75 75 76 76 77 77 77 76 75 74 73 72 72 72 71 71 71 70 70 69 69 68 67 67 66 65 65 65 64 63 62 62 61 61 60 60 60 59 58 57 56 55 53 51 50 49 49 48 47 45 43 41 40 40 40 40 40 39 39 38 37 37 37 38
46 47 48 50 51 53 54 56 57 59 60 62 63 64 66 66 67 68 69 70 71 72 73 74 75 76 77 78 78 78 78 77 76 75 74 74 73 73 73 72 72 72 71 70 69 68 67 66 66 65 65 64 64 63 63 63 62 62 61 61 60 59 57 56 54 52 51 50 50 50 48 46 44 42 41 41 41 42 42 42 41 40 38 38 37 38
44 45 46 46 47 48 50 51 52 53 54 56 57 59 60 62 63 64 65 67 68 70 71 72 73 74 75 76 77 78 79 79 78 77 76 76 75 75 74 74 73 73 73 72 72 71 69 68 67 67 66 66 65 65 65 64 64 63 63 62 62 61 60 58 56 54 52 52 52 51 50 47 45 43 42 41 42 43 44 44 43 42 40 39 38 38
45 45 46 47 47 48 48 49 50 50 51 52 53 54 55 57 58 59 61 63 64 66 67 69 70 71 72 74 75 76 77 78 78 78 78 77 77 76 75 75 74 74 74 74 74 73 72 71 70 69 68 67 67 66 66 66 65 65 65 64 64 63 62 60 59 56 55 53 53 53 52 49 47 44 43 42 42 44 45 46 45 44 42 41 40 39
47 47 48 48 49 49 50 50 50 51 51 52 52 53 53 54 55 55 57 58 60 62 63 65 67 68 69 70 72 73 74 75 76 77 77 77 77 77 76 75 75 74 74 74 75 74 74 73 73 71 70 69 69 68 67 67 67 66 66 65 65 64 64 63 61 59 57 56 55 54 53 51 49 47 45 44 44 45 46 47 46 45 44 43 41 40
50 50 51 51 52 52 52 53 53 53 53 53 54 54 54 55 55 55 56 56 57 58 60 61 63 64 66 67 69 70 71 72 73 74 75 76 77 77 77 76 75 75 74 74 74 75 75 75 74 73 72 71 70 69 69 68 68 68 67 67 66 66 65 64 63 61 60 58 57 56 55 53 51 49 48 47 47 47 47 48 47 46 45 44 43 41
53 53 54 54 55 55 56 56 56 56 56 56 56 56 57 57 57 57 57 57 57 57 58 59 60 61 63 64 66 67 68 70 71 72 73 74 75 76 77 77 76 76 75 74 74 74 75 75 74 74 73 72 71 70 69 69 69 68 68 67 66 65 65 65 64 63 61 60 59 57 56 55 53 52 51 50 50 49 49 49 48 47 46 45 44 43
56 56 57 57 58 58 59 59 59 59 59 59 59 59 59 59 59 59 60 60 59 59 59 59 60 60 61 63 64 66 67 68 69 70 71 72 73 75 76 76 77 76 75 75 74 74 74 74 74 74 73 72 71 70 69 69 69 68 67 65 64 64 65 64 64 63 62 61 60 59 58 56 55 54 53 52 52 51 51 50 50 49 48 47 46 45
59 60 60 61 61 62 62 62 62 63 63 63 63 63 63 63 63 62 62 62 62 62 61 61 61 61 62 63 64 65 66 67 67 68 69 70 71 73 74 75 76 77 76 76 75 75 74 74 74 74 73 72 71 70 69 69 69 69 67 65 63 63 63 63 63 63 62 62 61 60 59 58 57 56 55 54 53 53 52 52 51 51 50 49 48 46
63 63 64 64 65 65 65 65 66 66 66 66 66 66 66 66 66 65 65 65 65 65 64 64 64 63 64 65 66 67 67 67 67 67 67 68 69 71 72 73 75 76 76 76 76 75 75 74 74 73 73 72 71 70 70 70 70 69 68 67 65 63 61 61 62 62 63 63 61 60 59 58 58 57 56 55 55 54 54 53 53 52 52 51 49 48
66 67 68 68 69 69 69 69 70 70 70 70 70 69 69 69 69 69 69 68 68 68 67 67 66 66 66 66 67 68 68 68 68 67 66 66 67 68 70 71 73 74 74 75 76 76 75 75 74 74 73 72 72 71 71 71 71 71 71 71 69 64 59 58 60 62 64 64 62 61 59 59 59 58 58 56 55 55 54 54 54 54 53 52 51 50
69 70 71 72 72 73 73 74 74 74 74 74 74 74 73 73 73 73 72 72 72 71 71 70 69 69 68 68 69 69 69 69 69 68 66 66 66 67 68 69 70 71 72 73 74 74 75 75 74 74 74 73 72 72 72 72 72 73 74 75 74 68 61 57 57 60 63 65 64 61 60 60 60 60 59 57 56 55 55 55 55 55 54 53 52 51
72 73 74 75 75 76 77 77 78 78 78 78 78 78 78 77 77 77 76 76 75 75 74 73 73 72 71 71 71 71 71 70 70 69 68 67 66 66 67 68 69 70 70 71 71 72 73 73 74 74 74 74 73 73 73 73 73 74 75 77 76 72 65 59 57 58 62 64 64 63 61 61 62 62 60 58 57 56 56 55 56 56 55 54 53 52
75 76 77 78 79 79 80 80 81 81 82 82 82 82 82 81 81 81 80 80 80 79 78 77 76 76 75 74 74 74 73 72 72 71 70 68 67 67 68 68 69 69 69 70 70 70 71 72 73 74 74 75 75 74 74 74 74 75 76 77 77 74 70 63 59 58 61 64 66 65 64 63 64 63 62 60 58 57 56 56 57 57 56 55 54 52
80 81 82 82 83 83 83 84 84 85 85 85 85 85 85 85 85 85 84 84 84 83 82 81 80 79 78 77 77 77 76 75 75 73 72 70 69 69 69 69 69 69 70 70 70 70 71 72 72 73 74 75 75 75 74 74 74 75 76 77 76 75 73 68 62 59 60 64 66 67 66 65 64 64 63 61 59 58 57 57 57 57 57 56 54 53
84 85 86 87 87 88 88 88 88 89 89 88 88 88 88 88 87 87 87 87 87 87 86 85 84 83 82 81 81 80 79 78 78 76 74 72 71 71 70 70 70 70 70 70 71 72 73 73 72 72 72 74 75 75 75 75 75 75 76 76 76 75 74 71 66 61 59 61 64 64 63 62 62 62 62 61 60 59 59 59 58 58 58 56 55 54
87 88 89 90 90 91 91 91 92 92 92 91 91 91 90 90 90 90 90 90 90 90 89 89 88 87 86 85 84 83 83 82 81 79 77 76 74 73 72 71 71 71 71 71 71 72 73 73 72 71 70 72 74 75 75 75 75 76 76 76 76 75 74 73 69 63 59 58 59 59 58 57 57 59 60 60 60 60 60 60 59 59 58 57 56 54
89 90 90 91 91 91 92 92 92 93 93 93 93 92 92 92 91 91 91 91 92 92 91 91 90 90 89 89 88 87 87 86 84 82 80 79 77 75 74 73 73 72 72 71 71 72 73 73 72 71 70 70 72 73 74 75 75 76 76 77 76 76 75 73 70 65 60 57 56 56 55 55 55 57 58 59 60 60 60 60 60 59 58 57 56 55
90 90 90 90 90 90 90 90 90 91 91 91 92 92 92 92 92 91 91 91 92 92 92 92 92 92 92 91 91 90 90 89 88 86 84 82 80 78 77 75 75 74 73 71 71 71 72 73 73 72 71 71 71 72 73 74 75 76 77 77 76 76 75 74 71 68 62 58 56 56 57 57 57 57 58 59 60 60 60 60 60 59 59 58 57 56
89 89 89 89 89 88 88 88 88 88 88 89 89 89 90 89 89 89 89 90 91 91 91 91 92 93 93 93 93 93 93 92 91 90 88 85 83 81 80 78 77 76 74 73 72 71 72 73 73 73 73 73 73 73 73 74 75 76 77 77 76 76 75 73 72 69 65 61 60 60 62 62 61 60 60 60 60 60 59 59 59 59 59 59 59 58
88 88 87 87 87 87 86 86 86 86 86 86 86 86 86 86 86 86 87 89 89 89 89 90 91 91 92 93 94 94 95 95 94 93 91 89 86 84 83 81 80 78 77 75 73 72 72 72 73 74 74 75 75 75 75 75 75 76 76 76 76 75 75 73 72 69 67 65 64 65 66 66 65 63 62 62 61 60 59 58 59 59 60 61 60 59
86 86 86 85 85 84 84 84 84 83 83 83 83 83 83 82 82 82 84 86 85 85 86 87 88 89 90 91 93 94 95 96 96 96 94 92 90 88 86 84 82 81 79 77 75 73 72 72 73 73 74 75 76 76 76 76 76 76 76 76 75 75 74 73 72 70 68 66 66 66 68 68 67 65 64 63 62 60 59 59 60 61 62 63 62 61
84 83 83 82 82 81 81 80 80 80 80 80 80 80 80 79 79 79 80 81 81 81 82 84 84 85 87 88 89 91 93 95 97 97 96 94 93 91 90 87 86 84 82 80 78 76 74 73 73 73 73 74 75 76 76 77 77 77 77 76 75 75 74 73 72 70 69 67 66 67 68 68 67 66 65 65 63 62 61 61 62 63 64 64 64 62
80 79 79 78 78 77 77 76 76 76 76 76 76 76 76 76 76 76 76 76 76 77 78 79 80 81 82 83 84 86 89 93 95 96 96 95 95 94 92 90 89 87 85 82 80 78 77 75 74 73 73 73 74 75 76 77 77 78 78 77 76 76 75 74 72 70 69 68 67 67 68 69 68 67 66 66 65 64 63 63 64 65 65 65 65 64
77 76 75 74 73 73 72 72 72 71 72 72 72 72 72 72 72 72 72 72 72 73 73 74 75 76 77 78 79 81 85 88 92 94 94 94 95 95 94 93 92 90 88 85 83 81 79 77 76 75 74 74 73 74 74 76 77 78 78 78 78 77 76 74 71 69 68 67 68 68 69 69 69 68 68 67 67 66 65 65 65 66 66 66 66 65
74 73 72 71 70 69 68 67 67 67 67 67 67 67 68 68 68 68 68 68 68 69 69 69 70 71 72 73 74 76 80 83 86 89 90 91 93 94 95 94 94 93 91 88 86 83 81 79 77 76 75 74 74 73 74 74 75 76 77 78 78 78 76 74 70 68 67 67 68 69 70 70 69 69 69 69 68 68 68 67 67 66 66 66 66 65
71 70 69 68 66 65 64 63 63 62 62 62 62 63 63 63 63 64 64 64 64 64 64 64 65 66 66 67 69 71 74 77 80 83 85 87 89 91 93 94 94 94 93 91 89 86 84 82 80 78 77 76 75 74 74 73 74 74 75 76 76 76 74 72 69 68 68 70 71 71 70 69 70 70 70 70 70 70 70 69 67 66 65 65 66 65
69 67 66 65 63 62 61 60 59 59 58 58 58 58 58 58 58 59 59 59 59 59 60 60 60 61 62 62 63 65 68 71 74 77 80 82 84 87 90 91 93 94 94 93 91 89 86 84 82 80 79 78 76 75 75 74 73 73 73 74 73 72 71 69 68 68 69 71 72 71 68 68 69 71 72 72 72 71 70 69 67 65 64 65 65 65
66 65 63 62 61 59 58 57 56 55 55 54 54 54 53 53 53 54 54 54 54 55 55 55 56 56 57 58 59 60 62 65 68 70 73 76 79 82 84 87 90 92 93 93 93 91 89 87 85 83 81 79 78 77 76 75 74 73 72 72 71 69 67 66 66 67 68 69 70 69 66 65 68 72 74 74 72 71 69 67 65 64 64 64 64 64
63 62 61 59 57 56 55 54 53 51 51 50 49 49 49 49 49 49 49 49 49 50 50 51 51 52 53 54 55 56 58 60 62 64 67 70 73 76 78 82 86 88 90 92 93 93 91 89 87 85 83 82 81 79 78 76 75 73 72 71 70 68 66 64 64 65 66 67 68 67 65 65 68 71 72 71 70 68 66 65 64 64 63 63 63 62
60 58 57 56 54 53 51 50 49 48 47 46 45 45 44 44 44 44 45 45 45 45 46 47 47 48 49 50 51 52 53 55 56 59 61 64 67 70 73 77 80 83 86 89 91 92 92 91 89 88 86 84 83 81 80 78 76 75 73 72 70 68 65 64 64 65 66 66 66 66 65 65 67 69 69 67 65 65 65 65 64 64 63 62 62 60
56 54 53 51 50 48 47 46 45 44 43 42 41 41 40 40 40 41 41 41 41 42 42 43 43 44 45 46 47 48 49 50 52 54 56 58 61 64 67 70 74 77 81 85 88 90 91 92 91 90 88 86 85 83 82 80 78 77 75 73 71 68 66 65 65 66 66 67 66 66 65 66 67 67 66 64 63 63 64 64 64 63 62 61 60 59
51 50 48 47 45 44 43 42 41 41 40 39 38 37 37 37 37 38 38 38 38 38 39 39 40 41 42 43 43 44 45 46 48 49 51 53 56 59 61 64 68 71 75 79 82 86 89 91 92 91 90 89 87 85 84 82 80 79 77 74 71 69 67 66 65 65 66 66 65 65 66 66 67 66 64 62 62 62 63 63 63 62 61 60 59 58
46 44 43 42 40 40 39 38 38 37 36 36 35 35 34 34 34 35 35 35 35 35 35 35 36 37 38 39 40 41 42 43 44 45 47 48 51 53 56 59 62 65 69 72 76 81 84 87 90 91 91 90 89 87 86 84 82 80 78 75 73 71 68 66 65 65 64 64 64 64 65 66 66 65 63 62 61 61 62 62 61 61 60 59 58 57
41 39 38 37 36 35 35 35 34 34 34 33 33 33 32 32 32 32 32 32 32 32 32 32 33 33 34 35 36 37 38 39 40 41 42 44 46 48 50 53 56 60 63 66 70 74 79 83 86 89 91 91 90 89 88 86 84 82 80 78 75 72 69 67 66 65 63 62 62 62 64 65 65 64 63 61 61 61 61 61 61 60 60 58 57 56
36 34 33 33 32 32 31 31 31 31 31 31 31 31 30 29 29 29 29 29 29 30 29 30 30 30 31 32 33 34 35 36 37 37 38 39 41 43 45 48 51 54 57 60 63 68 73 77 81 85 89 90 91 90 89 88 86 84 82 80 77 73 70 69 68 66 63 62 61 61 62 64 64 63 62 61 61 62 61 61 60 60 59 58 56 55
32 30 30 29 29 29 28 29 29 29 29 30 30 29 29 28 27 26 27 27 27 27 27 27 27 27 28 29 29 30 31 32 33 34 34 35 36 38 40 42 45 48 51 54 57 61 66 70 75 80 85 88 89 90 90 89 88 86 84 82 78 75 72 71 69 68 66 64 62 62 62 63 63 62 61 61 62 62 61 61 60 60 59 58 56 54
28 27 27 26 26 26 27 27 28 28 28 28 28 28 27 26 25 24 24 24 24 24 25 25 25 25 26 26 26 27 28 29 30 30 31 31 32 33 34 37 39 42 45 48 52 55 59 63 69 75 80 83 86 88 90 90 89 87 85 83 81 78 75 73 71 70 69 67 65 64 63 63 62 61 60 61 62 62 61 60 60 60 59 58 56 55
25 25 25 25 25 25 26 27 27 27 28 28 27 27 26 25 24 23 23 23 23 23 23 23 23 23 24 24 24 25 25 26 27 28 28 28 29 29 30 32 34 36 39 43 46 50 54 58 63 68 73 77 82 85 88 89 89 88 86 85 82 80 77 75 73 72 71 70 69 67 66 65 63 61 60 62 63 63 61 60 60 60 59 58 57 55
24 24 24 24 24 25 25 26 26 27 27 27 27 26 25 24 23 22 22 21 21 21 21 21 22 22 22 22 23 23 24 24 25 26 27 27 27 27 27 28 29 32 34 37 40 44 48 52 57 61 66 71 76 80 84 87 88 87 87 86 84 82 80 77 75 73 73 72 71 70 69 67 65 63 62 63 63 63 61 60 60 59 59 58 57 56
23 23 23 24 24 25 25 26 26 26 27 27 27 26 25 23 22 21 21 20 20 20 20 20 21 21 21 22 22 22 22 23 24 25 25 26 26 26 26 26 27 28 30 33 35 39 42 47 51 55 60 65 70 74 79 83 85 86 87 86 85 84 82 80 77 75 74 73 73 72 71 70 69 67 65 63 63 63 63 61 60 59 59 58 58 57
24 24 24 24 24 25 25 25 25 26 26 26 26 25 25 23 22 21 20 20 19 19 19 20 20 20 20 21 21 21 22 22 23 24 24 25 26 26 26 26 26 27 28 29 32 34 38 42 46 50 55 59 64 68 73 78 82 84 86 86 86 85 84 83 80 77 75 74 74 73 73 72 72 70 68 65 64 64 64 64 62 61 60 59 58 57
24 24 24 24 25 25 25 25 25 25 25 25 25 25 24 23 22 21 20 19 19 19 19 19 19 19 20 20 20 21 21 22 22 23 24 24 25 25 26 26 26 27 27 28 29 31 33 37 41 46 50 54 58 62 67 72 76 80 83 84 86 86 86 85 83 81 78 76 75 74 74 73 73 72 71 68 65 64 64 65 65 63 61 60 59 58
26 25 25 25 25 25 25 25 25 25 24 24 24 24 23 23 22 21 20 19 18 18 18 18 18 19 19 19 20 20 21 21 22 23 23 24 24 25 25 26 26 26 27 27 28 29 30 33 36 40 45 49 53 57 61 65 70 74 78 82 84 86 87 87 86 84 81 79 77 76 75 74 74 73 72 70 66 64 64 67 68 67 65 63 62 61
Wind_Direction
270 270 270 269 269 269 268 268 267 267 266 266 265 265 264 264 263 262 261 260 259 259 259 258 258 257 256 256 256 257 257 258 257 257 256 256 256 256 255 255 255 254 254 254 253 253 254 254 254 254 255 255 255 256 257 258 259 260 261 262 262 262 262 261 260 260 260 259 259 259 258 258 258 260 261 263 263 263 262 261 260 259 258 257 256 254
270 269 269 269 268 268 268 267 267 266 266 265 265 264 264 263 262 262 261 259 258 258 257 257 256 255 255 254 254 255 256 256 257 257 256 256 255 255 254 254 254 253 253 253 253 253 253 253 253 254 254 254 254 255 256 257 258 259 260 261 262 262 262 261 261 260 260 260 259 258 257 256 257 259 262 264 265 266 265 263 261 259 258 256 255 253
269 268 268 268 267 267 267 267 266 266 266 265 265 264 263 262 262 261 260 259 258 257 256 255 254 254 253 252 252 252 253 254 255 256 256 255 255 254 253 253 252 252 252 252 251 251 252 252 253 253 253 254 254 255 255 256 257 258 259 260 261 261 262 262 261 261 260 259 258 257 255 254 256 258 261 264 266 268 268 266 264 261 258 256 254 252
268 268 267 267 267 266 266 266 265 265 265 264 264 263 263 262 261 260 259 258 257 256 255 254 253 252 251 251 250 250 250 251 253 253 254 254 254 253 253 252 251 251 250 250 250 250 251 251 252 252 253 253 254 255 255 256 257 257 258 259 260 260 261 262 262 261 260 258 256 254 253 252 254 256 259 262 265 267 268 268 266 263 259 256 254 251
268 267 267 267 266 266 265 265 265 264 264 264 263 263 262 261 260 259 258 257 256 255 254 253 252 251 250 250 249 249 249 249 250 252 253 253 253 253 252 252 251 250 249 249 249 249 249 250 251 252 252 253 254 255 255 256 256 257 257 258 259 259 260 261 262 261 259 257 254 252 250 250 251 253 256 259 262 265 267 267 267 264 260 256 253 250
269 268 268 267 267 266 266 265 265 264 264 263 263 262 262 261 260 259 258 257 256 255 254 252 251 251 250 250 249 249 248 249 249 250 252 252 253 253 253 253 252 251 250 249 248 248 248 249 250 251 252 253 254 255 256 256 256 257 257 258 258 258 259 260 261 260 259 256 253 250 249 248 249 251 253 256 259 261 264 266 266 264 261 257 253 249
270 269 269 268 268 267 266 266 265 265 264 264 263 262 262 261 261 260 259 258 257 256 254 253 252 251 250 250 250 250 249 249 249 249 250 252 253 253 254 254 253 252 251 250 249 248 248 248 249 250 251 252 253 255 256 256 257 257 257 258 258 258 258 258 259 259 258 255 252 249 247 247 247 249 251 253 256 259 261 263 264 264 261 257 253 249
272 271 271 270 269 268 268 267 267 266 265 265 264 263 262 262 261 261 260 259 258 257 256 254 253 253 252 251 251 251 250 250 250 249 250 250 252 253 254 254 254 254 253 252 251 250 249 248 249 249 250 252 253 254 255 257 258 258 258 258 258 258 257 257 257 257 256 254 251 249 247 246 246 247 249 251 254 257 259 261 262 262 261 258 253 249
274 273 272 271 271 270 269 269 268 268 267 266 265 264 263 263 262 261 261 260 259 258 257 256 255 254 254 253 252 252 252 251 251 250 250 250 250 251 252 253 254 254 254 253 252 251 250 249 249 249 250 251 252 254 255 257 258 258 259 259 259 258 258 257 256 255 255 253 252 250 248 246 245 246 247 250 253 256 259 260 261 261 260 257 254 249
274 274 273 272 272 271 271 270 269 269 268 267 267 266 265 264 263 262 261 261 260 259 258 257 256 256 255 255 254 254 253 252 252 251 250 250 250 250 251 252 253 254 254 254 253 253 252 251 250 250 250 251 252 253 254 255 256 257 258 258 259 259 258 257 256 255 254 253 252 251 250 248 246 246 247 249 253 256 259 260 261 260 259 256 253 250
275 275 274 273 273 272 271 271 270 270 269 268 268 267 267 265 264 263 262 261 260 260 260 259 258 257 257 256 256 255 255 254 253 252 251 250 250 250 250 250 251 252 253 253 253 253 252 252 251 251 250 251 251 252 253 254 254 255 256 257 258 258 258 258 257 255 253 252 252 252 251 250 249 248 248 249 252 255 258 260 261 260 258 256 253 251
277 276 275 275 274 273 272 271 271 270 269 269 268 268 267 266 266 264 263 262 261 260 260 259 259 259 258 257 257 256 256 255 254 253 252 251 250 250 249 249 249 250 251 251 252 252 252 252 252 251 251 251 251 251 252 252 252 253 254 254 255 256 257 257 256 255 253 252 251 252 252 251 251 250 250 250 251 254 256 259 260 259 257 255 254 253
278 277 276 276 275 274 273 273 272 271 270 269 269 268 267 267 266 265 264 263 262 260 259 259 259 259 258 258 258 257 257 256 255 255 254 252 251 250 249 249 248 249 249 250 250 251 251 251 251 251 251 251 251 251 251 251 251 251 252 252 253 254 255 255 255 254 252 251 251 251 251 251 251 251 251 250 251 252 254 256 258 258 256 255 254 254
278 278 277 276 275 275 274 273 273 272 271 270 270 269 268 268 267 266 265 264 263 261 260 259 258 258 258 258 258 258 257 257 256 255 255 254 252 251 250 248 248 248 248 249 249 250 250 250 251 251 250 250 250 250 250 250 250 250 250 251 252 253 253 254 253 252 251 250 250 249 250 250 250 250 251 251 251 251 252 253 255 256 256 255 254 254
280 279 278 277 277 276 275 274 273 272 272 271 270 269 269 268 267 266 266 265 264 263 261 260 259 258 258 258 258 258 258 257 257 256 255 254 253 252 251 249 248 247 247 247 248 248 249 249 250 250 250 250 250 250 250 250 249 249 249 250 251 252 253 253 252 251 250 249 249 249 249 249 249 250 250 250 251 251 251 252 253 254 254 254 254 254
282 282 281 280 279 278 277 276 275 274 273 272 271 270 269 268 267 267 266 265 265 264 263 262 261 259 259 258 258 258 258 257 257 256 255 254 254 253 252 250 249 247 246 246 247 247 248 248 249 249 249 249 249 249 249 249 249 248 247 247 247 249 250 251 251 250 249 249 248 248 248 248 249 249 250 250 250 251 251 251 251 252 253 253 253 253
284 283 282 281 280 279 278 277 276 275 274 273 272 271 270 269 268 267 266 265 265 264 264 263 262 261 260 259 258 258 257 257 257 256 255 254 254 253 252 251 250 248 247 246 246 246 247 247 248 248 248 248 248 248 248 248 247 247 245 243 243 244 246 247 247 247 248 248 248 248 248 248 249 249 249 250 250 250 250 251 251 251 252 252 252 253
284 283 282 282 281 280 279 278 277 276 275 274 273 272 271 270 269 268 267 266 265 264 263 263 262 262 261 260 259 258 257 257 257 256 255 254 254 253 252 252 250 249 247 246 245 245 245 246 247 247 248 248 248 247 247 247 246 246 244 243 243 244 246 245 244 244 246 247 248 248 248 249 249 250 250 250 250 250 250 250 251 251 251 251 251 252
284 283 282 282 281 280 279 278 277 277 276 275 274 273 272 271 270 269 268 266 265 264 263 262 262 261 261 260 260 259 258 257 257 256 254 254 253 253 252 252 251 250 248 247 245 245 245 245 246 246 247 247 247 247 246 246 246 245 245 244 244 246 247 246 244 242 243 246 247 248 248 249 250 250 250 250 250 250 250 250 251 251 251 251 251 251
283 282 281 281 280 279 279 278 277 276 275 275 274 273 272 271 270 269 268 267 266 265 264 263 261 261 260 259 259 259 258 258 257 256 254 253 253 252 252 251 251 250 249 247 246 245 245 245 245 245 246 246 246 246 246 246 245 245 245 245 246 246 247 247 245 243 243 244 246 246 247 249 250 251 251 251 251 251 250 250 251 251 251 252 252 251
283 282 281 280 279 278 278 277 276 275 274 274 273 272 271 270 270 269 268 267 266 265 264 263 262 261 260 259 258 258 258 257 257 256 255 254 253 252 251 251 250 250 248 247 245 244 244 244 244 244 244 245 245 245 245 245 245 246 246 246 247 247 247 247 247 245 244 243 243 244 244 246 248 250 251 252 252 252 251 251 251 251 251 252 252 252
284 283 282 281 280 279 278 277 276 275 274 273 272 271 270 269 268 268 267 266 265 265 264 263 262 261 260 259 258 257 257 256 256 256 255 254 253 252 251 251 250 249 248 247 245 244 244 244 244 243 243 243 243 244 244 244 245 246 246 247 247 247 247 247 247 247 245 243 241 240 240 242 244 247 249 251 252 252 252 251 251 251 251 252 252 252
285 284 283 282 281 280 278 277 276 275 274 272 271 270 269 268 267 266 266 265 264 263 263 262 262 261 260 259 258 257 256 256 255 255 254 254 253 252 251 251 250 249 248 247 245 244 244 244 244 243 242 242 242 242 243 243 244 245 246 247 247 247 247 247 247 248 247 244 241 239 238 239 241 244 247 249 251 252 252 251 251 251 251 252 252 252
285 284 283 282 281 280 279 278 277 275 274 273 271 270 269 268 267 266 265 264 263 262 262 261 261 260 259 259 258 257 256 255 254 254 253 253 252 252 251 251 250 249 248 247 246 245 245 245 245 244 242 240 240 241 242 242 243 244 245 247 247 247 247 246 246 247 247 245 241 239 238 239 241 243 245 248 250 251 251 251 250 250 250 251 251 252
286 285 284 283 282 280 279 278 277 276 274 273 272 270 269 268 267 265 264 263 262 261 260 259 259 258 258 257 257 256 256 255 254 253 252 252 251 251 251 250 250 249 248 247 246 245 245 245 245 244 243 241 240 240 240 241 242 243 244 245 246 247 247 246 246 246 246 244 242 240 241 243 244 245 246 248 249 250 250 250 249 249 249 250 250 251
286 285 284 283 282 281 280 279 277 276 275 273 272 271 269 268 267 266 264 263 261 260 259 258 257 257 256 256 255 255 255 255 254 253 252 251 250 250 249 249 249 248 248 247 246 246 245 245 245 244 243 242 241 240 240 241 241 242 242 244 245 246 247 246 246 245 244 244 243 243 245 247 248 248 248 249 249 249 249 248 248 248 248 249 249 250
288 287 286 285 283 282 281 280 278 277 276 274 273 271 270 269 267 266 265 263 262 260 259 258 256 256 255 254 254 254 254 254 253 252 252 251 250 249 248 248 248 248 247 247 246 246 245 245 244 244 243 242 242 241 241 241 241 241 241 242 244 245 246 246 246 245 244 244 244 245 248 249 250 249 249 249 249 248 247 247 247 247 247 248 248 249
290 289 288 286 285 284 283 281 280 278 277 275 274 272 271 269 268 267 265 264 263 261 260 258 257 255 254 253 253 253 252 252 252 252 251 250 249 248 248 247 247 247 246 246 246 245 245 245 244 244 243 243 242 242 242 241 241 240 240 241 242 244 245 246 246 246 245 244 245 247 248 249 250 249 249 249 248 247 246 246 246 247 247 247 248 248
292 290 289 288 287 286 284 283 281 280 278 277 275 274 272 271 269 268 266 265 264 262 261 259 258 256 254 253 252 252 251 251 251 250 250 249 249 248 247 247 246 246 245 245 245 244 244 244 244 244 243 243 243 242 242 241 240 239 239 240 241 242 244 245 246 246 245 245 245 247 248 249 249 248 248 248 247 246 245 245 246 247 247 247 248 248
293 292 291 289 288 287 286 284 283 282 280 279 277 275 274 272 270 268 267 266 265 263 262 260 259 257 255 254 252 251 251 250 250 249 249 248 248 247 247 246 245 245 244 244 243 243 243 244 244 244 243 243 243 242 242 241 240 239 239 239 240 241 243 244 245 245 245 244 245 246 247 247 247 246 246 246 246 245 244 245 246 247 247 247 248 248
294 293 292 291 289 288 287 286 284 283 282 280 279 277 275 273 272 270 268 267 266 264 263 261 260 259 257 255 253 251 250 250 249 249 248 247 247 246 246 245 245 244 244 243 242 242 242 242 243 243 243 243 243 242 242 241 240 239 239 239 239 240 241 243 244 244 243 242 243 244 245 245 245 244 244 244 244 244 244 244 246 247 247 247 247 247
295 294 293 291 290 289 288 287 285 284 283 281 280 278 277 275 273 272 270 268 267 265 264 262 261 260 258 257 255 252 251 250 249 248 248 247 246 246 245 245 244 244 243 242 242 241 241 241 241 242 243 243 243 242 241 241 241 240 239 239 240 240 241 242 242 242 241 241 241 242 243 243 243 243 243 243 243 243 243 244 245 246 246 246 246 247
296 295 294 293 291 290 289 287 286 285 283 282 281 279 278 277 275 273 271 270 268 267 265 264 262 261 259 258 256 254 252 251 250 249 248 247 246 245 245 244 243 243 242 242 241 240 240 240 240 240 241 242 242 242 242 241 241 240 240 240 240 241 241 241 241 241 241 241 241 241 241 242 241 241 241 242 242 242 242 243 244 245 246 246 246 246
297 296 295 293 292 291 289 288 287 285 284 283 282 280 279 278 276 275 273 271 270 268 266 265 263 262 260 259 257 255 254 252 250 249 248 247 246 245 244 243 243 242 242 241 240 239 239 239 238 239 239 240 241 242 242 241 241 241 241 241 241 241 242 241 241 241 241 241 239 239 239 240 241 241 241 242 242 242 242 243 243 244 245 245 245 245
298 297 295 294 293 291 290 289 287 286 285 284 282 281 280 279 277 276 275 273 271 270 268 266 265 263 261 259 258 256 255 253 252 250 248 247 246 245 244 243 242 242 241 240 240 239 238 237 237 237 238 238 240 240 241 241 241 240 240 241 241 241 241 240 240 241 241 238 235 234 235 237 239 241 242 242 242 242 242 243 243 244 244 244 244 243
299 297 296 294 293 292 290 289 288 287 286 284 283 282 280 279 278 277 275 274 273 271 270 268 266 264 262 260 258 257 255 254 253 251 250 248 246 245 244 243 242 241 241 240 239 238 237 237 236 236 236 237 238 239 240 240 240 240 240 240 240 240 239 239 239 240 239 235 232 230 231 234 237 239 241 242 242 242 242 243 243 244 244 243 242 241
299 297 296 294 293 292 291 289 288 287 286 285 284 282 281 280 278 277 276 275 273 272 271 269 268 266 264 262 260 258 256 255 254 252 251 249 247 246 244 243 242 241 240 240 239 238 237 236 235 235 235 235 236 237 238 239 239 239 239 239 239 239 238 237 238 238 237 234 230 229 230 232 234 236 238 239 240 240 241 242 243 243 243 241 239 237
299 297 296 294 293 292 291 290 289 288 287 285 284 283 281 280 279 277 276 275 274 273 272 270 269 267 265 263 261 259 257 256 255 253 252 250 248 247 245 244 243 242 240 239 238 237 236 236 235 234 234 234 234 235 236 237 238 238 238 238 238 238 237 237 236 236 236 234 231 230 230 231 233 235 236 236 236 238 240 241 242 241 240 238 236 234
299 297 296 294 293 292 291 290 289 288 287 286 284 283 281 280 279 277 276 275 274 273 273 271 270 269 268 265 263 261 259 257 255 254 253 251 249 248 246 245 243 242 241 239 238 237 236 235 234 234 233 233 233 234 235 235 236 237 237 237 237 237 237 236 235 235 235 234 233 232 231 231 232 233 234 233 234 236 238 239 239 238 236 234 232 230
300 298 296 295 294 293 292 291 290 289 288 287 285 283 281 280 279 277 276 276 275 274 273 272 272 271 270 268 266 264 261 259 257 255 254 252 251 249 247 246 244 243 241 240 238 237 236 235 234 233 232 232 232 232 233 234 235 235 235 235 236 236 236 235 234 235 235 235 234 232 231 231 232 232 232 232 233 235 236 236 235 233 231 229 227 226
301 299 297 296 295 295 294 293 292 291 290 288 286 284 282 280 279 278 277 276 275 275 274 273 273 272 272 271 269 267 264 262 259 257 255 254 252 250 248 247 245 244 242 240 239 237 236 235 234 233 232 232 231 231 232 232 233 234 234 234 234 234 234 234 233 234 234 233 232 231 230 230 230 230 230 231 232 233 232 231 230 228 226 225 224 224
302 300 299 298 297 297 296 296 295 294 292 290 288 285 283 281 280 278 278 277 276 276 275 275 274 274 274 273 272 270 268 266 263 260 258 256 254 252 250 248 246 245 243 242 240 238 236 235 234 233 232 231 231 230 231 231 231 232 232 232 232 232 233 233 233 232 232 231 230 229 228 229 228 228 229 230 230 229 228 227 225 224 222 221 221 221
304 302 301 300 300 300 300 299 298 296 294 292 290 288 286 283 281 280 278 277 277 276 276 275 275 275 275 275 275 274 273 270 267 264 261 259 257 255 252 250 248 246 244 243 241 239 237 235 234 233 232 231 230 230 230 230 230 230 231 231 231 230 230 231 231 231 230 229 228 227 227 227 227 227 229 229 228 226 225 223 222 220 219 219 219 220
306 305 304 304 304 304 304 303 301 300 298 296 293 291 289 286 284 282 280 278 277 277 276 276 275 275 275 276 276 277 277 275 273 269 266 262 260 257 255 253 251 248 246 244 242 240 238 236 235 233 232 231 230 229 229 229 229 229 229 229 229 228 228 229 230 230 230 229 228 226 226 226 227 228 230 229 226 224 222 220 219 218 217 217 218 219
310 309 309 309 309 309 308 307 306 304 302 299 297 294 292 290 287 284 282 280 278 277 276 276 275 275 275 276 277 278 279 280 279 276 272 268 264 260 258 255 253 251 248 246 243 241 239 237 236 234 232 231 230 229 229 229 228 228 228 228 227 227 227 227 228 229 229 229 228 227 226 226 227 229 230 228 224 221 220 218 217 217 216 217 218 219
315 314 314 313 313 313 312 311 310 308 306 303 300 297 295 292 290 287 284 281 279 278 276 276 275 275 275 276 277 279 280 282 283 282 280 276 271 266 262 258 255 253 250 248 245 243 241 238 237 235 233 232 230 229 229 228 228 228 227 227 226 225 225 225 226 228 229 229 229 228 227 226 227 229 230 227 224 221 219 218 217 217 216 217 218 219
318 317 316 316 315 314 314 313 312 311 309 307 304 301 298 294 291 288 285 283 280 278 277 276 275 274 275 276 277 278 280 282 283 285 285 284 280 276 269 264 259 255 252 250 247 245 242 240 238 236 235 233 231 230 229 228 227 227 226 226 225 224 224 224 224 226 227 228 229 228 228 227 228 229 229 227 225 223 221 219 218 217 217 217 218 219
321 319 318 317 316 315 314 314 313 312 311 309 306 303 300 296 293 290 287 284 281 279 277 276 275 275 275 276 277 278 279 280 282 284 286 286 286 284 279 273 267 261 256 252 249 247 244 242 240 237 235 234 232 231 230 228 227 227 226 225 224 223 222 222 223 223 225 227 228 228 228 228 228 228 229 228 227 225 223 221 219 218 218 218 218 219
325 323 321 320 318 317 316 315 314 313 312 310 307 305 301 298 295 291 288 285 282 280 278 277 276 275 276 276 277 278 279 280 281 282 284 285 286 286 285 282 277 271 264 258 253 250 247 244 242 239 236 234 233 232 230 229 228 227 226 224 223 222 221 221 221 222 223 224 226 227 227 228 228 228 228 229 228 227 225 223 220 219 219 219 219 219
329 327 325 323 321 319 318 316 315 314 312 310 308 305 302 299 296 293 290 286 283 281 279 277 277 277 277 277 278 279 280 280 281 282 282 283 284 284 285 284 282 278 273 267 261 256 252 248 244 241 238 236 234 233 231 230 229 227 226 224 223 222 220 220 220 220 221 222 223 225 226 227 227 228 228 228 228 228 226 224 221 220 219 220 220 220
334 331 329 326 324 322 320 318 316 315 313 311 308 305 302 299 296 293 290 288 285 282 280 279 278 278 278 279 280 281 282 282 283 283 283 283 283 283 283 282 282 280 278 274 270 265 259 255 250 245 241 237 235 234 232 231 230 228 227 225 223 221 220 219 219 219 219 220 221 222 223 225 226 227 227 228 228 227 227 225 222 220 219 219 219 218
Height
5657 5657 5657 5658 5658 5658 5657 5657 5658 5659 5659 5661 5662 5663 5664 5665 5666 5666 5667 5667 5668 5668 5669 5670 5670 5671 5671 5671 5671 5671 5670 5670 5670 5671 5672 5672 5673 5674 5675 5676 5677 5678 5680 5681 5682 5683 5684 5685 5686 5687 5688 5688 5689 5690 5691 5691 5692 5693 5694 5694 5695 5695 5696 5696 5697 5697 5697 5698 5698 5699 5699 5700 5700 5701 5701 5702 5702 5702 5703 5704 5705 5705 5706 5707 5708 5709
5651 5651 5651 5651 5651 5651 5650 5649 5650 5651 5652 5653 5655 5656 5657 5658 5658 5658 5659 5660 5661 5661 5662 5662 5663 5664 5665 5665 5665 5665 5665 5665 5665 5665 5666 5667 5668 5669 5670 5671 5672 5673 5674 5675 5677 5677 5678 5680 5681 5682 5682 5683 5684 5685 5686 5687 5687 5688 5689 5689 5690 5691 5692 5692 5692 5693 5693 5694 5694 5695 5695 5696 5697 5697 5698 5698 5698 5699 5699 5700 5701 5702 5702 5703 5704 5705
5644 5644 5644 5644 5644 5644 5643 5642 5642 5643 5644 5645 5647 5649 5650 5651 5651 5651 5652 5652 5653 5654 5655 5656 5657 5657 5658 5659 5659 5659 5659 5659 5660 5660 5661 5662 5663 5664 5665 5666 5667 5668 5669 5670 5671 5672 5673 5674 5675 5676 5677 5678 5679 5680 5681 5682 5682 5683 5684 5685 5686 5686 5687 5687 5688 5688 5689 5689 5690 5691 5691 5692 5693 5693 5694 5694 5695 5695 5696 5697 5697 5698 5699 5700 5701 5702
5638 5637 5637 5637 5637 5637 5636 5635 5636 5637 5637 5638 5640 5641 5642 5642 5642 5643 5644 5645 5646 5647 5647 5648 5649 5650 5651 5652 5653 5654 5654 5654 5655 5655 5656 5656 5657 5658 5659 5660 5661 5662 5663 5664 5665 5666 5667 5669 5670 5671 5672 5673 5674 5675 5676 5677 5677 5678 5679 5680 5681 5682 5682 5683 5684 5684 5685 5685 5686 5687 5687 5688 5689 5690 5690 5691 5691 5692 5692 5693 5694 5694 5695 5696 5697 5698
5632 5631 5630 5630 5631 5630 5629 5628 5628 5629 5630 5632 5633 5634 5634 5634 5634 5635 5636 5637 5638 5639 5640 5641 5642 5643 5644 5645 5647 5647 5648 5648 5649 5649 5650 5650 5651 5652 5652 5653 5655 5656 5657 5658 5659 5661 5662 5663 5664 5666 5667 5668 5669 5669 5671 5672 5672 5673 5674 5675 5676 5677 5678 5679 5679 5680 5680 5681 5682 5682 5683 5684 5685 5686 5687 5687 5688 5688 5689 5690 5691 5691 5692 5692 5693 5695
5625 5625 5624 5624 5624 5624 5622 5622 5622 5622 5624 5625 5626 5626 5626 5626 5627 5628 5629 5630 5630 5631 5632 5633 5635 5636 5637 5638 5639 5640 5642 5642 5643 5644 5644 5645 5645 5646 5646 5647 5648 5650 5651 5652 5653 5655 5656 5657 5659 5660 5662 5663 5664 5665 5665 5667 5667 5668 5669 5671 5672 5672 5673 5674 5675 5676 5676 5677 5677 5678 5679 5680 5680 5682 5682 5683 5684 5685 5686 5687 5687 5688 5689 5689 5690 5691
5620 5619 5619 5618 5618 5617 5617 5617 5616 5617 5618 5619 5619 5619 5619 5619 5620 5621 5622 5622 5623 5624 5625 5627 5627 5628 5629 5631 5632 5633 5634 5636 5637 5638 5639 5639 5640 5640 5641 5641 5642 5643 5645 5647 5648 5650 5651 5652 5654 5655 5656 5657 5659 5660 5660 5661 5662 5663 5664 5665 5667 5667 5669 5670 5671 5672 5672 5672 5673 5674 5675 5675 5676 5677 5678 5680 5681 5682 5682 5683 5684 5685 5686 5687 5687 5688
5615 5614 5614 5613 5612 5612 5612 5611 5611 5611 5612 5612 5612 5612 5613 5613 5614 5614 5615 5615 5616 5617 5618 5620 5621 5622 5622 5623 5624 5625 5627 5628 5630 5631 5632 5633 5634 5634 5635 5635 5636 5637 5639 5641 5642 5644 5646 5647 5648 5649 5651 5652 5653 5654 5655 5656 5657 5658 5659 5660 5661 5662 5664 5665 5666 5667 5668 5668 5669 5670 5670 5671 5672 5673 5674 5676 5677 5678 5679 5680 5681 5682 5683 5684 5684 5685
5610 5609 5609 5608 5608 5607 5607 5606 5606 5606 5606 5606 5606 5606 5607 5607 5608 5608 5608 5609 5609 5610 5611 5612 5613 5614 5615 5616 5617 5617 5619 5621 5622 5624 5625 5627 5627 5628 5629 5630 5631 5632 5633 5635 5636 5638 5640 5641 5642 5644 5645 5646 5647 5648 5649 5651 5652 5653 5654 5655 5655 5656 5658 5659 5661 5662 5663 5664 5665 5665 5666 5667 5668 5669 5670 5672 5673 5674 5675 5676 5677 5679 5680 5680 5681 5681
5606 5605 5604 5604 5603 5603 5602 5601 5601 5601 5601 5600 5600 5600 5601 5602 5602 5602 5603 5603 5602 5602 5604 5605 5606 5607 5608 5609 5609 5610 5611 5612 5615 5616 5618 5619 5620 5622 5623 5624 5625 5626 5627 5628 5630 5632 5633 5635 5637 5637 5639 5640 5641 5642 5643 5645 5647 5648 5649 5650 5651 5651 5652 5654 5655 5657 5658 5659 5660 5661 5661 5662 5663 5664 5665 5667 5669 5670 5671 5672 5674 5675 5678 5679 5677 5677
5602 5602 5601 5600 5599 5599 5598 5597 5597 5597 5597 5596 5595 5595 5595 5596 5596 5597 5597 5597 5597 5597 5597 5598 5599 5600 5601 5602 5602 5602 5603 5605 5607 5608 5610 5612 5613 5614 5616 5617 5619 5620 5621 5622 5623 5625 5627 5628 5630 5631 5632 5634 5635 5636 5637 5639 5641 5642 5643 5644 5645 5646 5647 5648 5650 5652 5653 5654 5655 5656 5657 5657 5658 5659 5661 5663 5665 5666 5667 5669 5670 5672 5674 5676 5675 5673
5598 5597 5597 5596 5595 5595 5594 5593 5592 5592 5592 5592 5591 5590 5590 5591 5591 5591 5591 5591 5591 5592 5592 5592 5592 5593 5594 5594 5594 5595 5596 5597 5599 5601 5602 5604 5605 5607 5608 5610 5612 5613 5615 5616 5617 5618 5620 5621 5623 5625 5626 5627 5629 5630 5632 5633 5634 5636 5637 5638 5639 5641 5642 5643 5645 5646 5648 5649 5650 5651 5652 5653 5654 5655 5657 5658 5660 5662 5664 5665 5666 5668 5671 5671 5669 5669
5594 5593 5592 5592 5591 5590 5589 5589 5588 5587 5587 5587 5586 5586 5585 5586 5586 5586 5586 5585 5586 5587 5587 5587 5586 5586 5587 5587 5587 5587 5589 5590 5591 5593 5595 5596 5597 5599 5600 5602 5604 5606 5608 5609 5610 5612 5612 5614 5616 5618 5619 5621 5622 5624 5625 5627 5628 5630 5631 5632 5633 5635 5636 5638 5639 5641 5642 5644 5645 5646 5647 5648 5650 5651 5652 5654 5656 5657 5659 5661 5662 5664 5667 5668 5666 5666
5590 5589 5588 5587 5586 5585 5585 5584 5583 5582 5582 5582 5582 5581 5581 5581 5581 5581 5580 5579 5580 5581 5581 5581 5581 5581 5580 5580 5580 5580 5582 5583 5584 5586 5587 5589 5589 5591 5592 5594 5597 5599 5601 5602 5604 5605 5606 5607 5609 5611 5612 5614 5616 5618 5620 5622 5623 5624 5625 5626 5627 5628 5630 5632 5634 5636 5637 5638 5640 5641 5642 5644 5645 5647 5648 5649 5651 5653 5655 5656 5658 5660 5662 5664 5664 5665
5585 5584 5583 5582 5581 5580 5579 5579 5578 5577 5577 5577 5577 5576 5576 5575 5575 5575 5574 5574 5574 5574 5575 5575 5575 5574 5574 5574 5573 5574 5575 5576 5577 5578 5580 5581 5582 5583 5584 5587 5588 5591 5593 5595 5596 5597 5599 5601 5602 5603 5606 5607 5609 5611 5613 5614 5616 5617 5619 5620 5622 5623 5624 5626 5627 5630 5632 5633 5634 5636 5637 5639 5640 5642 5643 5645 5647 5648 5650 5651 5653 5655 5656 5658 5659 5662
5579 5578 5577 5576 5575 5574 5573 5573 5572 5572 5571 5571 5571 5570 5570 5569 5569 5569 5569 5568 5568 5568 5569 5568 5568 5568 5568 5567 5567 5567 5568 5568 5570 5572 5573 5575 5575 5576 5577 5578 5581 5583 5586 5588 5589 5591 5592 5594 5596 5597 5599 5601 5603 5605 5606 5607 5608 5610 5612 5615 5617 5618 5619 5621 5622 5624 5626 5627 5629 5630 5632 5633 5635 5637 5638 5640 5642 5643 5645 5646 5648 5650 5651 5653 5654 5656
5573 5572 5571 5569 5568 5567 5567 5567 5566 5565 5564 5564 5564 5564 5563 5563 5562 5562 5562 5562 5562 5562 5562 5562 5562 5562 5562 5562 5561 5561 5561 5562 5563 5565 5567 5568 5568 5569 5569 5571 5572 5575 5578 5580 5582 5584 5586 5588 5589 5591 5593 5595 5597 5598 5600 5602 5603 5605 5606 5608 5611 5613 5615 5616 5618 5619 5621 5622 5623 5625 5627 5628 5630 5632 5633 5635 5637 5638 5640 5641 5643 5645 5646 5648 5649 5651
5567 5565 5564 5562 5562 5561 5560 5559 5558 5557 5557 5557 5557 5557 5556 5556 5556 5555 5555 5555 5555 5555 5555 5555 5555 5556 5555 5556 5555 5554 5554 5555 5556 5558 5560 5562 5562 5562 5563 5563 5565 5567 5570 5573 5575 5577 5579 5581 5583 5585 5587 5589 5591 5592 5594 5595 5597 5598 5600 5601 5603 5606 5608 5611 5612 5614 5616 5617 5618 5620 5622 5623 5625 5626 5628 5630 5632 5633 5635 5636 5637 5639 5641 5643 5644 5646
5560 5558 5557 5555 5554 5554 5553 5552 5550 5550 5549 5549 5549 5549 5548 5548 5548 5547 5547 5547 5547 5547 5547 5548 5548 5549 5549 5549 5548 5547 5547 5548 5549 5551 5553 5554 5555 5556 5557 5557 5557 5560 5563 5566 5567 5569 5572 5574 5577 5579 5581 5582 5584 5586 5587 5588 5590 5592 5593 5594 5596 5598 5601 5604 5607 5609 5611 5612 5613 5615 5617 5618 5620 5621 5623 5625 5626 5628 5629 5631 5632 5634 5636 5637 5639 5641
5554 5552 5550 5548 5547 5546 5545 5543 5542 5542 5541 5540 5540 5540 5540 5539 5539 5539 5539 5538 5539 5539 5539 5540 5540 5541 5542 5542 5542 5541 5541 5542 5542 5543 5545 5547 5549 5549 5550 5550 5551 5553 5556 5558 5560 5562 5565 5568 5570 5572 5574 5576 5577 5579 5580 5582 5583 5585 5586 5588 5590 5592 5594 5597 5601 5603 5605 5607 5608 5610 5612 5613 5614 5616 5617 5619 5621 5623 5624 5626 5627 5629 5631 5632 5634 5636
5547 5545 5542 5541 5540 5538 5537 5535 5534 5532 5532 5531 5531 5531 5530 5530 5530 5530 5530 5530 5530 5530 5530 5532 5532 5532 5534 5535 5534 5533 5533 5534 5535 5536 5537 5540 5542 5542 5543 5543 5544 5546 5549 5551 5553 5556 5559 5561 5563 5566 5567 5569 5570 5572 5574 5576 5577 5579 5580 5582 5584 5586 5588 5591 5594 5597 5600 5602 5603 5605 5606 5608 5609 5611 5612 5614 5616 5617 5619 5621 5623 5624 5626 5628 5630 5632
5539 5536 5534 5532 5531 5529 5528 5526 5525 5523 5522 5522 5521 5521 5520 5520 5520 5520 5520 5520 5520 5520 5521 5522 5522 5523 5525 5526 5526 5525 5525 5527 5527 5528 5530 5533 5535 5535 5536 5537 5538 5540 5542 5544 5547 5549 5552 5554 5556 5558 5560 5562 5563 5565 5567 5569 5572 5573 5575 5576 5578 5580 5583 5585 5587 5590 5594 5596 5598 5600 5601 5602 5603 5605 5607 5609 5611 5612 5614 5616 5618 5620 5621 5623 5625 5627
5529 5526 5524 5522 5520 5518 5517 5516 5514 5513 5512 5512 5511 5510 5510 5510 5510 5510 5509 5510 5510 5510 5511 5512 5513 5514 5516 5516 5516 5516 5517 5517 5518 5520 5523 5526 5527 5527 5529 5531 5532 5533 5535 5537 5540 5542 5545 5547 5549 5551 5553 5555 5556 5558 5561 5563 5566 5567 5569 5571 5572 5575 5577 5579 5582 5584 5587 5589 5592 5593 5595 5596 5597 5599 5602 5603 5605 5607 5609 5611 5613 5615 5617 5618 5620 5622
5519 5516 5513 5511 5509 5507 5505 5504 5502 5501 5501 5500 5499 5499 5498 5499 5499 5499 5498 5498 5499 5499 5500 5502 5503 5505 5505 5506 5506 5507 5507 5507 5509 5511 5515 5517 5518 5520 5523 5524 5525 5526 5528 5530 5533 5535 5537 5539 5542 5543 5546 5547 5549 5551 5554 5557 5559 5561 5563 5565 5567 5569 5571 5573 5575 5578 5581 5583 5586 5587 5589 5590 5592 5594 5596 5598 5600 5602 5604 5606 5607 5610 5612 5613 5615 5617
5509 5506 5503 5500 5498 5495 5493 5492 5490 5489 5488 5487 5487 5487 5487 5487 5487 5487 5487 5486 5487 5487 5489 5491 5493 5494 5494 5495 5497 5497 5496 5497 5499 5502 5506 5508 5510 5513 5515 5517 5517 5519 5520 5523 5526 5528 5530 5532 5535 5537 5539 5541 5542 5545 5547 5550 5552 5554 5557 5558 5560 5562 5565 5567 5569 5572 5575 5578 5580 5582 5583 5584 5586 5588 5591 5593 5595 5597 5599 5601 5602 5605 5607 5609 5611 5612
5497 5495 5492 5489 5487 5484 5482 5480 5478 5477 5475 5474 5474 5474 5475 5475 5475 5475 5475 5475 5475 5476 5477 5480 5481 5482 5482 5484 5486 5487 5485 5486 5489 5492 5495 5498 5502 5504 5507 5508 5510 5511 5513 5516 5519 5521 5523 5526 5528 5531 5532 5534 5535 5538 5541 5543 5545 5547 5550 5552 5554 5556 5558 5560 5563 5566 5569 5572 5575 5577 5577 5579 5581 5583 5585 5588 5590 5592 5594 5596 5598 5600 5602 5604 5606 5607
5486 5483 5480 5477 5475 5472 5470 5468 5466 5465 5463 5462 5462 5462 5462 5462 5463 5463 5463 5462 5463 5464 5466 5468 5469 5470 5471 5474 5475 5475 5474 5476 5478 5481 5484 5488 5492 5495 5498 5500 5502 5504 5506 5509 5512 5514 5516 5519 5521 5524 5526 5527 5529 5532 5534 5536 5538 5541 5543 5545 5547 5550 5552 5554 5557 5560 5562 5566 5569 5571 5572 5573 5576 5578 5581 5583 5585 5587 5589 5591 5593 5595 5597 5599 5600 5602
5474 5471 5468 5465 5463 5460 5458 5456 5454 5453 5451 5450 5450 5450 5450 5450 5451 5452 5451 5450 5451 5452 5455 5456 5457 5458 5461 5463 5464 5464 5464 5466 5467 5469 5472 5478 5482 5485 5488 5491 5494 5496 5498 5502 5505 5507 5510 5512 5514 5516 5518 5520 5522 5524 5527 5529 5531 5533 5536 5539 5541 5543 5546 5548 5551 5554 5557 5560 5562 5565 5567 5568 5571 5573 5576 5578 5580 5582 5584 5586 5588 5590 5592 5594 5595 5596
5463 5460 5457 5454 5452 5449 5447 5445 5442 5441 5440 5439 5438 5438 5438 5439 5440 5440 5439 5438 5439 5442 5443 5443 5445 5447 5449 5451 5452 5453 5454 5455 5455 5456 5461 5468 5472 5475 5477 5482 5485 5487 5490 5493 5497 5501 5504 5505 5506 5508 5510 5512 5515 5518 5519 5522 5524 5527 5529 5532 5535 5537 5540 5542 5545 5548 5551 5554 5557 5559 5561 5563 5566 5568 5571 5573 5575 5577 5579 5581 5583 5585 5587 5588 5589 5591
5453 5450 5447 5444 5441 5438 5436 5434 5432 5430 5429 5427 5427 5427 5427 5427 5428 5428 5427 5427 5429 5431 5432 5432 5433 5436 5437 5439 5442 5444 5445 5444 5442 5444 5450 5458 5462 5464 5467 5472 5476 5477 5481 5485 5489 5492 5496 5497 5499 5501 5503 5505 5508 5511 5512 5515 5517 5520 5522 5525 5528 5531 5534 5536 5539 5542 5545 5548 5551 5554 5556 5558 5561 5563 5566 5567 5570 5572 5574 5576 5578 5580 5582 5583 5584 5586
5444 5441 5437 5434 5432 5429 5426 5424 5422 5420 5418 5417 5416 5416 5416 5416 5417 5417 5417 5418 5419 5420 5421 5422 5423 5425 5426 5428 5432 5434 5434 5432 5431 5434 5440 5447 5450 5452 5456 5462 5465 5467 5472 5477 5481 5484 5487 5490 5492 5494 5495 5498 5500 5503 5506 5508 5510 5513 5516 5519 5522 5525 5527 5530 5533 5536 5539 5542 5545 5548 5550 5553 5555 5558 5560 5562 5564 5567 5569 5571 5573 5575 5576 5577 5579 5581
5435 5432 5429 5426 5423 5420 5418 5416 5413 5412 5410 5408 5407 5406 5406 5406 5406 5407 5407 5408 5409 5410 5411 5412 5413 5414 5416 5418 5421 5423 5423 5422 5422 5424 5430 5436 5439 5441 5446 5452 5454 5457 5462 5468 5472 5475 5479 5483 5485 5487 5488 5491 5493 5495 5498 5501 5504 5506 5509 5512 5515 5518 5521 5524 5527 5530 5533 5536 5540 5542 5545 5547 5550 5552 5555 5557 5559 5561 5563 5566 5567 5569 5570 5572 5574 5576
5426 5423 5420 5417 5415 5412 5410 5408 5406 5404 5402 5401 5399 5398 5397 5397 5397 5397 5398 5399 5400 5401 5402 5403 5404 5405 5407 5409 5411 5412 5412 5412 5413 5416 5420 5425 5428 5431 5436 5441 5444 5447 5452 5457 5462 5466 5470 5474 5478 5480 5482 5484 5486 5488 5491 5494 5497 5500 5502 5505 5508 5511 5514 5517 5520 5523 5527 5530 5534 5537 5539 5542 5544 5547 5549 5551 5553 5555 5557 5560 5562 5563 5565 5567 5569 5571
5417 5414 5412 5409 5407 5405 5402 5401 5399 5397 5395 5394 5392 5391 5390 5390 5389 5389 5390 5390 5391 5392 5393 5395 5396 5397 5398 5400 5401 5402 5403 5403 5404 5406 5410 5415 5419 5421 5424 5430 5434 5437 5441 5447 5452 5457 5461 5466 5469 5473 5476 5477 5479 5482 5484 5487 5490 5493 5495 5498 5501 5504 5507 5510 5513 5516 5519 5524 5528 5532 5534 5536 5538 5541 5543 5545 5547 5549 5552 5554 5556 5558 5560 5562 5563 5566
5409 5406 5404 5402 5399 5397 5395 5393 5392 5390 5389 5387 5386 5385 5384 5383 5383 5382 5382 5383 5383 5384 5385 5387 5388 5389 5390 5392 5393 5394 5395 5395 5395 5397 5401 5406 5409 5411 5415 5420 5424 5427 5431 5437 5442 5446 5452 5456 5461 5464 5467 5470 5472 5475 5477 5479 5482 5486 5489 5491 5494 5497 5500 5503 5507 5509 5512 5517 5522 5525 5528 5530 5533 5535 5537 5539 5541 5543 5545 5547 5550 5552 5554 5556 5558 5560
5402 5399 5396 5394 5392 5390 5388 5387 5385 5384 5382 5381 5380 5379 5379 5378 5377 5377 5377 5377 5377 5377 5378 5379 5380 5381 5383 5384 5386 5387 5387 5387 5387 5390 5393 5397 5399 5402 5407 5411 5413 5416 5421 5427 5432 5437 5442 5447 5451 5455 5459 5462 5465 5467 5469 5472 5475 5479 5482 5485 5487 5490 5493 5497 5499 5502 5505 5509 5514 5518 5521 5524 5527 5529 5531 5532 5535 5537 5539 5541 5543 5546 5548 5551 5553 5555
5394 5392 5389 5387 5386 5384 5382 5381 5379 5378 5377 5376 5375 5374 5373 5373 5372 5372 5372 5371 5372 5372 5372 5373 5373 5374 5376 5377 5378 5380 5380 5380 5382 5383 5386 5388 5391 5394 5399 5401 5403 5407 5413 5417 5421 5426 5432 5437 5441 5446 5451 5454 5456 5459 5462 5465 5468 5472 5475 5478 5481 5483 5487 5490 5493 5496 5498 5502 5506 5510 5514 5517 5519 5522 5524 5527 5529 5531 5533 5535 5537 5540 5542 5545 5547 5550
5388 5385 5383 5381 5379 5378 5377 5375 5374 5373 5372 5371 5370 5369 5369 5368 5368 5367 5367 5367 5367 5367 5367 5367 5368 5368 5369 5370 5372 5373 5374 5375 5376 5377 5379 5380 5383 5387 5390 5392 5394 5399 5404 5407 5410 5415 5422 5427 5432 5437 5441 5444 5448 5451 5455 5458 5461 5464 5467 5470 5473 5477 5480 5483 5486 5489 5492 5495 5498 5502 5506 5509 5511 5514 5517 5521 5523 5526 5528 5530 5532 5534 5537 5539 5542 5544
5382 5379 5377 5375 5374 5373 5372 5370 5369 5368 5367 5367 5366 5365 5365 5364 5364 5363 5363 5363 5363 5363 5363 5363 5363 5363 5364 5365 5366 5367 5368 5369 5371 5372 5373 5375 5377 5379 5382 5384 5387 5390 5394 5397 5401 5407 5413 5417 5422 5427 5431 5436 5440 5444 5447 5451 5454 5457 5459 5463 5467 5471 5473 5476 5479 5482 5485 5489 5492 5495 5498 5501 5504 5507 5511 5514 5518 5521 5523 5524 5527 5529 5532 5534 5537 5539
5376 5374 5372 5371 5369 5368 5367 5366 5365 5364 5363 5362 5362 5362 5361 5361 5360 5360 5359 5359 5359 5359 5359 5360 5359 5359 5359 5360 5361 5362 5363 5364 5365 5367 5368 5369 5371 5373 5375 5377 5380 5382 5385 5389 5393 5398 5403 5407 5412 5417 5422 5427 5432 5436 5439 5443 5447 5449 5453 5457 5461 5464 5466 5469 5473 5476 5479 5483 5486 5489 5492 5495 5498 5502 5505 5508 5512 5515 5517 5519 5522 5524 5527 5530 5532 5535
5372 5370 5368 5367 5365 5364 5363 5362 5361 5360 5359 5359 5358 5358 5358 5357 5357 5357 5356 5356 5356 5356 5356 5356 5356 5356 5356 5356 5356 5357 5358 5359 5361 5362 5363 5364 5365 5367 5369 5371 5373 5375 5378 5382 5385 5389 5393 5398 5403 5407 5413 5418 5422 5427 5432 5435 5439 5442 5447 5450 5452 5455 5458 5463 5467 5470 5473 5477 5480 5483 5487 5490 5493 5496 5499 5503 5506 5509 5510 5513 5516 5519 5522 5525 5527 5530
5367 5366 5365 5363 5362 5361 5360 5359 5358 5357 5356 5356 5355 5355 5355 5355 5355 5354 5354 5354 5353 5353 5353 5354 5354 5353 5353 5353 5352 5353 5354 5355 5356 5357 5359 5360 5361 5362 5364 5365 5367 5369 5372 5375 5378 5381 5385 5389 5394 5398 5403 5408 5413 5418 5423 5427 5430 5435 5439 5442 5445 5449 5455 5459 5462 5464 5467 5471 5474 5477 5481 5484 5487 5490 5493 5497 5500 5502 5506 5509 5511 5514 5517 5519 5522 5526
5364 5363 5362 5361 5360 5359 5358 5357 5356 5355 5354 5353 5353 5352 5352 5352 5352 5352 5352 5352 5351 5351 5351 5351 5351 5351 5351 5350 5350 5350 5350 5351 5352 5353 5355 5356 5357 5358 5359 5360 5362 5364 5366 5369 5372 5374 5377 5381 5385 5390 5394 5399 5404 5410 5414 5417 5422 5427 5431 5434 5439 5444 5450 5452 5454 5457 5462 5465 5469 5472 5475 5478 5481 5483 5486 5490 5493 5497 5500 5503 5506 5508 5511 5514 5517 5521
5362 5361 5360 5359 5358 5357 5356 5355 5354 5353 5352 5351 5351 5350 5350 5350 5350 5350 5350 5349 5349 5349 5349 5349 5349 5349 5349 5348 5348 5348 5347 5347 5348 5349 5351 5352 5353 5354 5355 5356 5357 5359 5361 5363 5366 5367 5370 5374 5378 5382 5385 5390 5396 5401 5405 5409 5414 5419 5423 5427 5432 5437 5441 5443 5447 5452 5457 5460 5463 5467 5470 5472 5475 5478 5481 5485 5489 5492 5495 5498 5501 5504 5507 5510 5513 5516
5360 5359 5358 5357 5356 5355 5354 5353 5352 5351 5350 5349 5349 5348 5348 5347 5347 5347 5347 5347 5347 5347 5347 5347 5347 5347 5347 5347 5347 5347 5346 5346 5346 5346 5347 5348 5350 5351 5352 5353 5354 5355 5356 5358 5360 5362 5364 5368 5370 5373 5376 5381 5387 5392 5396 5400 5405 5410 5415 5420 5426 5430 5433 5438 5443 5447 5451 5453 5457 5461 5464 5467 5470 5473 5477 5482 5485 5488 5491 5493 5496 5499 5502 5505 5508 5512
5358 5358 5357 5356 5355 5354 5353 5352 5351 5350 5349 5348 5347 5347 5346 5346 5346 5346 5346 5346 5346 5346 5346 5346 5346 5346 5345 5345 5345 5345 5345 5344 5344 5344 5344 5345 5346 5347 5348 5349 5350 5351 5352 5354 5355 5357 5359 5362 5363 5366 5369 5375 5379 5383 5387 5392 5397 5402 5407 5412 5418 5422 5427 5432 5437 5441 5443 5447 5451 5455 5458 5461 5465 5468 5472 5476 5480 5483 5486 5489 5492 5494 5497 5501 5504 5507
5358 5357 5356 5355 5354 5353 5352 5351 5350 5349 5348 5347 5346 5345 5344 5344 5344 5344 5344 5344 5344 5344 5344 5344 5344 5344 5344 5344 5344 5344 5344 5343 5343 5343 5343 5343 5343 5344 5345 5346 5347 5348 5349 5350 5351 5352 5354 5356 5358 5360 5364 5368 5372 5375 5379 5384 5389 5394 5399 5404 5410 5415 5420 5424 5429 5432 5436 5441 5445 5449 5452 5457 5460 5463 5465 5470 5475 5479 5482 5485 5487 5490 5493 5496 5499 5502
5357 5357 5356 5355 5354 5353 5352 5351 5349 5348 5347 5346 5345 5344 5343 5343 5343 5343 5343 5343 5343 5343 5343 5343 5343 5342 5342 5342 5343 5343 5343 5342 5342 5342 5342 5342 5341 5342 5342 5343 5344 5345 5346 5347 5348 5349 5350 5351 5353 5355 5358 5361 5364 5367 5371 5376 5381 5386 5391 5396 5402 5407 5412 5417 5421 5426 5430 5435 5438 5442 5447 5451 5454 5456 5459 5464 5470 5474 5478 5480 5483 5486 5488 5492 5495 5497
5357 5356 5355 5354 5353 5352 5351 5350 5349 5347 5347 5345 5344 5343 5342 5342 5342 5342 5342 5342 5342 5342 5341 5341 5341 5341 5341 5341 5341 5342 5342 5341 5341 5341 5341 5341 5340 5340 5340 5341 5341 5342 5343 5344 5344 5345 5346 5347 5348 5350 5352 5355 5358 5361 5364 5369 5373 5378 5382 5388 5394 5400 5404 5409 5414 5418 5423 5427 5431 5435 5439 5443 5447 5450 5454 5458 5462 5467 5471 5475 5478 5481 5484 5487 5489 5492
5356 5355 5354 5353 5352 5351 5350 5349 5348 5347 5346 5344 5343 5342 5342 5341 5340 5340 5340 5340 5340 5340 5340 5340 5340 5340 5340 5340 5340 5340 5340 5340 5340 5339 5339 5339 5339 5339 5339 5339 5339 5340 5340 5341 5342 5342 5343 5344 5344 5346 5347 5350 5353 5356 5359 5362 5366 5370 5375 5381 5386 5391 5396 5401 5406 5411 5415 5419 5423 5427 5431 5436 5440 5444 5449 5452 5456 5459 5464 5469 5473 5476 5479 5481 5485 5488
5356 5355 5354 5352 5352 5350 5349 5348 5347 5346 5345 5344 5343 5342 5341 5340 5340 5339 5339 5339 5339 5339 5339 5339 5339 5339 5339 5338 5338 5338 5338 5338 5338 5338 5338 5338 5338 5338 5338 5338 5338 5338 5338 5338 5339 5340 5340 5341 5341 5342 5343 5346 5348 5351 5353 5356 5359 5363 5368 5373 5377 5382 5388 5393 5398 5403 5407 5412 5416 5420 5424 5428 5433 5437 5442 5445 5449 5454 5459 5463 5467 5470 5473 5477 5480 5483